Location: Bovenkerk
(52.2915°N, 4.8336°E)
Time: 02:00:38
(UTC+00:00)

N. Korean satellite - Pass Details

Date: 06 March 2021
Orbit: 453 x 499 km, 97.2° (Epoch: 11 April)

Event Time Altitude Azimuth Distance (km) Brightness Sun altitude
Rises 04:02:51 0° 29° (NNE) 2,531 10.9 -20.9°
Reaches altitude 10° 04:05:45 10° 56° (ENE) 1,658 10.4 -20.4°
Maximum altitude 04:07:40 14° 89° (E) 1,432 9.9 -20.2°
Drops below altitude 10° 04:09:37 10° 122° (ESE) 1,664 9.8 -19.9°
Sets 04:12:31 0° 149° (SSE) 2,549 10.4 -19.5°
